Tracking 31027 objects as of 19-Jul-2025
HD Live streaming from Space Station
objects crossing your sky now

DELTA 1 DEB

Track DELTA 1 DEB now!
10-day predictions


NORAD ID: 21501
Int'l Code: 1975-052FW
Perigee: 1,050.5 km
Apogee: 1,912.4 km
Inclination: 99.8 °
Period: 115.4 minutes
Semi major axis: 7852 km
RCS: 0.0598 m2 (small)
Launch date: June 12, 1975
Source: United States (US)
Launch site: AIR FORCE WESTERN TEST RANGE (AFWTR)

Note: This is SATELLITE DEBRIS
Your satellite tracking list
ABS 3
Track 1 satellite(s)




NASA's NSSDC Master Catalog

Two Line Element Set (TLE):
1 21501U 75052FW  25197.37319405  .00000174  00000-0  81132-3 0  9994
2 21501  99.7916 147.0996 0548797 169.4421 344.8431 12.47663864555475
Source of the keplerian elements: AFSPC